Flag for Cambodia Weather past 2 weeks in Battambang, Cambodia

Now
84 °F

Passing clouds.


Feels Like: 92 °F
Forecast: 73 / 94 °F
Wind: 8 mph from West

Location: Siemreap

Current Time: Mar 6, 2015 at 9:59:14 PM

Latest Report: Mar 6, 2015 at 9:30 PM


Visibility: 6 mi

Pressure: 29.80 "Hg

Humidity: 74%

Dew point: 75 °F

Location of BattambangLocation

Historic Weather in Battambang — Graph

°F

Battambang temperature yesterday

Maximum temperature yesterday: 93 °F (at 1:00 PM)
Minimum temperature yesterday: 79 °F (at 7:00 AM)
Average temperature yesterday: 88 °F

Past Weeks' High & Low Weather Summary

 TemperatureHumidityPressure
High95 °F (Feb 23, 4:00 PM)100% (Feb 28, 7:00 AM)29.95 "Hg (Feb 28, 7:00 AM)
Low73 °F (Feb 20, 7:00 AM)39% (Feb 22, 4:00 PM)29.62 "Hg (Mar 5, 3:30 PM)
Average86 °F66%29.81 "Hg
* Reported Feb 19 8:00 PM — Mar 6 8:30 PM, Battambang, Weather by CustomWeather, © 2015

Note: Actual official high and low records may vary slightly from our data, if they occured in-between our weather recording intervals... More about our weather records

Advertising

Battambang weather history for previous 24 hours

 ConditionsComfort  
Time TempWeatherWind HumidityBarometerVisibility
8:30 PM
Fri, Mar 6
86 °FPassing clouds.3 mph59%29.77 "Hg6 mi
8:00 PM86 °FPassing clouds.5 mph59%29.77 "Hg6 mi
7:30 PM88 °FPassing clouds.3 mph55%29.74 "Hg6 mi
7:00 PM90 °FPassing clouds.2 mph49%29.74 "Hg6 mi
6:30 PM90 °FPassing clouds.3 mph46%29.74 "Hg6 mi
6:00 PM91 °FPassing clouds.3 mph44%29.74 "Hg6 mi
5:30 PM93 °FPassing clouds.6 mph41%29.71 "Hg6 mi
5:00 PM93 °FPassing clouds.6 mph39%29.71 "Hg6 mi
4:30 PM95 °FPassing clouds.6 mph39%29.71 "Hg6 mi
4:00 PM95 °FPassing clouds.5 mph39%29.71 "Hg6 mi
3:30 PM95 °FPassing clouds.6 mph41%29.74 "Hg6 mi
3:00 PM95 °FPassing clouds.6 mph41%29.74 "Hg6 mi
2:30 PM95 °FPassing clouds.6 mph41%29.74 "Hg6 mi
2:00 PM93 °FPassing clouds.6 mph44%29.77 "Hg6 mi
1:30 PM93 °FPassing clouds.6 mph53%29.77 "Hg6 mi
1:00 PM93 °FPassing clouds.6 mph53%29.80 "Hg6 mi
12:30 PM90 °FPassing clouds.6 mph59%29.83 "Hg6 mi
12:00 PM90 °FPassing clouds.6 mph59%29.83 "Hg6 mi
11:30 AM90 °FPassing clouds.6 mph59%29.86 "Hg6 mi
11:00 AM90 °FPassing clouds.6 mph59%29.86 "Hg6 mi
10:30 AM88 °FPassing clouds.6 mph62%29.89 "Hg6 mi
10:00 AM86 °FPassing clouds.6 mph66%29.89 "Hg6 mi
9:30 AM86 °FPassing clouds.7 mph66%29.89 "Hg6 mi
9:00 AM84 °FClear.7 mph70%29.89 "Hg6 mi
8:30 AM81 °FClear.7 mph79%29.89 "Hg6 mi
8:00 AM81 °FClear.7 mph79%29.89 "Hg6 mi
7:30 AM79 °FClear.6 mph84%29.86 "Hg6 mi
1:00 AM82 °FPassing clouds.No wind84%29.80 "Hg6 mi
12:30 AM82 °FPassing clouds.3 mph84%29.80 "Hg6 mi
12:00 AM82 °FPassing clouds.5 mph84%29.83 "Hg6 mi
11:30 PM
Thu, Mar 5
84 °FPassing clouds.6 mph79%29.83 "Hg6 mi
11:00 PM86 °FClear.6 mph70%29.83 "Hg6 mi
10:30 PM86 °FClear.5 mph70%29.80 "Hg6 mi
10:00 PM86 °FClear.3 mph66%29.80 "Hg6 mi
9:30 PM82 °FClear.2 mph79%29.80 "Hg6 mi
9:00 PM82 °FClear.No wind79%29.77 "Hg6 mi
Weather by CustomWeather, © 2015

See weather overviewHow to use our weather pages